This is the latest recevied weather packets stored in our database for station/object SP3ZBZ-13. If no packets are shown the sender has not sent any weather packets the latest 10 day(s).
| Time | Temp. | Humidity | Pressure | Rain* | Wind** | Luminosity | Snow |
|---|---|---|---|---|---|---|---|
| 1787847129 | 23.89° C | 42% | 1016.7 hPa | - | - | 95 W/m² | - |
| 1787846228 | 23.89° C | 44% | 1016.8 hPa | - | - | 132 W/m² | - |
| 1787845328 | 23.89° C | 42% | 1016.9 hPa | - | - | 166 W/m² | - |
| 1787844426 | 23.89° C | 42% | 1016.9 hPa | - | - | 202 W/m² | - |
| 1787843526 | 23.89° C | 42% | 1016.9 hPa | - | - | 242 W/m² | - |
| 1787842624 | 23.89° C | 43% | 1016.9 hPa | - | - | 277 W/m² | - |
| 1787841723 | 23.89° C | 43% | 1016.9 hPa | - | - | 310 W/m² | - |
| 1787840824 | 24.44° C | 45% | 1016.8 hPa | - | - | 349 W/m² | - |
| 1787839921 | 23.89° C | 42% | 1016.8 hPa | - | - | 384 W/m² | - |
| 1787839019 | 24.44° C | 44% | 1016.9 hPa | - | - | 421 W/m² | - |
| 1787838119 | 23.89° C | 43% | 1016.9 hPa | - | - | 446 W/m² | - |
| 1787837218 | 23.89° C | 43% | 1016.9 hPa | - | - | 466 W/m² | - |
| 1787836316 | 23.89° C | 45% | 1017.1 hPa | - | - | 505 W/m² | - |
| 1787835415 | 23.33° C | 43% | 1017.3 hPa | - | - | 533 W/m² | - |
| 1787834515 | 23.89° C | 41% | 1017.5 hPa | - | - | 560 W/m² | - |
| 1787833614 | 23.33° C | 43% | 1017.5 hPa | - | - | 574 W/m² | - |
| 1787832713 | 23.33° C | 42% | 1017.7 hPa | - | - | 581 W/m² | - |
| 1787831812 | 23.33° C | 44% | 1017.9 hPa | - | - | 591 W/m² | - |
| 1787830911 | 23.33° C | 42% | 1017.9 hPa | - | - | 603 W/m² | - |
| 1787830010 | 23.33° C | 41% | 1018.1 hPa | - | - | 615 W/m² | - |
| 1787829109 | 23.33° C | 40% | 1018.3 hPa | - | - | 611 W/m² | - |
| 1787828208 | 22.78° C | 42% | 1018.4 hPa | - | - | 611 W/m² | - |
| 1787827307 | 22.78° C | 45% | 1018.5 hPa | - | - | 610 W/m² | - |
| 1787826406 | 22.78° C | 47% | 1018.5 hPa | - | - | 598 W/m² | - |
| 1787825505 | 22.22° C | 46% | 1018.5 hPa | - | - | 586 W/m² | - |
* Rain since midnight (hover to see other rain measurements)
** Current wind speed in m/s (hover to see current wind gust speed)